159  
ASUS44 KLCH 020810  
RWRLCH  
REGIONAL WEATHER ROUNDUP  
NATIONAL WEATHER SERVICE LAKE CHARLES LA  
200 AM CST SAT MAR 02 2024  
 
NOTE: "FAIR" INDICATES FEW OR NO CLOUDS BELOW 12,000 FEET WITH NO  
SIGNIFICANT WEATHER AND/OR S TO VISIBILITY
.  
 
ACROSS SOUTHEAST TEXAS  
 
CITY SKY/WX TMP DP RH WIND PRES REMARKS
 
BEAUMONT CLEAR 56 54 93 CALM 30.05F  
BEAUMONT CITY CLEAR 53 51 95 N6 30.07S FOG  
ORANGE CLEAR 56 53 91 CALM 30.08S  
JASPER N/A 48 48 100 CALM 30.07S  

 
 
ACROSS CENTRAL LOUISIANA  
 
CITY SKY/WX TMP DP RH WIND PRES REMARKS
 
LEESVILLE CLEAR 51 49 92 CALM 30.06S  
FULLERTON CLEAR 48 46 93 CALM 30.06S  
ALEXANDRIA INT FOG 43 43 100 CALM 30.09R VSB 1/4  
ESLER FIELD CLEAR 42 41 96 CALM 30.08F FOG  
DERIDDER CLEAR 49 49 100 CALM 30.09S  
OAKDALE CLEAR 48 45 87 CALM 30.08S  
OPELOUSAS PTCLDY 51 49 95 CALM 30.06F  

 
 
ACROSS SOUTHWEST AND SOUTH CENTRAL LOUISIANA  
 
CITY SKY/WX TMP DP RH WIND PRES REMARKS
 
DEQUINCY CLEAR 50 49 95 CALM 30.08F  
SULPHUR PTCLDY 55 53 94 CALM 30.07F  
LAKE CHARLES PTCLDY 54 53 97 CALM 30.06F  
CHENNAULT INT PTCLDY 56 53 89 CALM 30.07S FOG  
JENNINGS PTCLDY 54 54 100 CALM 30.07F  
LAFAYETTE PTCLDY 57 55 93 CALM 30.06F  
NEW IBERIA PTCLDY 54 53 97 CALM 30.06F  
ABBEVILLE CLOUDY 54 54 100 CALM 30.05F FOG  
PATTERSON FOG 56 56 100 E5 30.07F VSB 1/2  
SALT POINT N/A 56 55 97 CALM 30.05F  

 
 
SELECTED SITES ACROSS THE REGION  
 
CITY SKY/WX TMP DP RH WIND PRES REMARKS
 
HOUSTON BUSH PTCLDY 54 51 90 CALM 30.07S  
HOUSTON HOBBY CLEAR 56 52 86 NW3 30.06S  
GALVESTON CLEAR 58 56 93 CALM 30.06S  
COLLEGE STAT CLEAR 52 50 93 S5 30.06S  
CONROE CLEAR 47 47 100 CALM 30.07S  
HUNTSVILLE CLEAR 53 50 89 S5 30.07R  
LUFKIN CLEAR 51 48 89 CALM 30.07S  
SHREVEPORT CLEAR 46 43 87 CALM 30.07F  
MONROE FOG 41 40 96 CALM 30.12S VSB 1/4  
NATCHEZ MS FOG 48 48 100 NE5 30.10F VSB 1/4  
BATON ROUGE FOG 55 53 93 NE5 30.07F VSB 3/4  
N.O. INTL ARPT FOG 59 59 100 E5 30.08S VSB 1/4  
SLIDELL FOG 56 54 93 N6 30.08R VSB 1  

 
 
MARINE REPORTS  
 
STATION/POSITION TIME SKY/WX TEMP WIND PRES VSBY
 
AIR SEA DIR/SP/G  
(UTC) (F) (DEG/KT/KT) (MB) (MI)  
BUOY 30 S HIGH I NOT AVBL  
SEA RIM ST PARK 0800 61 150/ 4/ 5 1017.6F  
PORT ARTHUR 0724 60 CALM / 1 1016.5  
TEXAS POINT 0724 60 130/ 6/ 7 1016.2  
CALCASIEU PASS 0724 61 140/ 7/ 10 1018.1  
LK CHARLES BEACH 0724 58 1018.5  
MARSH ISLAND NOT AVBL  
FRESH WATER LOCK 0724 55 80/ 5/ 6 1021.4  
AMERADA PASS 0730 90/ 8/ 11 1017.9F  

 
 
 
CLICK HERE TO GO TO PREVIOUS BULLETINS.

The Nexlab LA Page
The Nexlab TX Page Main Text Page